Tracking 18852 objects as of 24-Nov-2017
HD Live streaming from Space Station
objects crossing your sky now

GALAXY 4R

Track GALAXY 4R now!
GALAXY 4R is classified as:


NORAD ID: 26298
Int'l Code: 2000-020A
Perigee: 35,882.5 km
Apogee: 35,947.7 km
Inclination: 8.7 °
Period: 1,442.3 minutes
Semi major axis: 42286 km
RCS: 26.0372 m2 (large)
Launch date: April 19, 2000
Source: United States (US)
Launch site: FRENCH GUIANA (FRGUI)

Television and Internet; 24 C-band, 24 Ku-band; North America.
aabbcc
Your satellite tracking list
Your tracking list is empty




NASA's NSSDC Master Catalog

Two Line Element Set (TLE):
1 26298U 00020A   17326.84559799 -.00000000 +00000-0 +00000-0 0  9995
2 26298 008.7457 044.7608 0007713 196.3342 137.2648 00.99840400064381
Source of the keplerian elements: AFSPC